Regional Weather Roundup
Issued by NWS Wakefield, VA

Home | Current Version | Previous Version | Graphics & Text | Print | Product List | Glossary On
Versions: 1 2 3 4 5 6 7 8 9 10 11 12 13 14 15 16 17 18 19 20 21 22 23 24 25 26 27 28 29 30 31 32 33 34 35 36 37 38 39 40 41 42 43 44 45 46 47 48 49 50
724
ASUS41 KAKQ 231615
RWRAKQ

REGIONAL WEATHER ROUNDUP
NATIONAL WEATHER SERVICE WAKEFIELD VA
1100 AM EST MON JAN 23 2017

Note: "fair" indicates few or no clouds below 12,000 feet with no
significant weather and/or obstructions to visibility. * = Denotes
station may not report precipitation (e.g., rain,snow,etc.),
thunder or fog.

VAZ042-051-052>054-056-231700-
NORTHERN VIRGINIA

CITY           SKY/WX    TMP DP  RH WIND       PRES   REMARKS
WASH NATIONAL  RAIN      45  42  89 NE30G37   29.45F FOG
DULLES         RAIN      43  39  86 NE33G41   29.44F FOG
FORT BELVOIR   LGT RAIN  44  41  89 NE13G32   29.42F
QUANTICO       LGT RAIN  46  44  93 E22G39    29.43R FOG
FREDERICKSBRG* RAIN      46  46 100 NE22G31   29.37F
STAFFORD*      RAIN      44  44 100 NE21G33   29.43S
WARRENTON      RAIN      45  41  85 NE16G30   29.42S
CULPEPER*      LGT RAIN  45  44  96 NE12G21   29.44R VSB 3/4
MANASSAS*      NOT AVBL
LEESBURG*      LGT RAIN  45  45 100 NE9G30    29.51R
WINCHESTER     RAIN      41  37  87 NE9G29    29.51R
FRONT ROYAL*   CLOUDY    41  41 100 N12       29.48S VSB 1
LURAY*         RAIN      43  43 100 N18G24    29.45R
$$

VAZ048-049-060>072-079>083-231700-
CENTRAL AND SOUTH CENTRAL VIRGINIA

CITY           SKY/WX    TMP DP  RH WIND       PRES   REMARKS
RICHMOND       LGT RAIN  52  52 100 E15G25    29.29S FOG
CHESTERFIELD*  CLOUDY    54  37  54 E8G18     29.30S
PETERSBURG*    LGT RAIN  55  54  94 CALM      29.29S
HANOVER        RAIN      50  48  93 NE9G23    29.32S FOG
TAPPAHANNOCK*  LGT RAIN  50  50 100 NE13G22   29.32S
QUINTON*       CLOUDY    52  52 100 NE12G17   29.30S FOG
CHARLOTTSVILLE RAIN      47  44  90 NE14      29.39R FOG
GORDONSVILLE*  CLOUDY    46  45  98 NE15G22   29.39R
ORANGE*        RAIN      46  46 100 N13G18    29.42R
LOUISA*        LGT RAIN  50  48  93 NE18G29   29.34S
BUMPASS*       CLOUDY    47  47 100 NE7G22    29.34S
FARMVILLE*     RAIN      50  50  99 N6        29.31R
CREWE*         CLOUDY    51  51 100 CALM      29.29R
FORT PICKETT*  CLOUDY   N/A N/A N/A CALM      29.29R
CHASE CITY*    CLOUDY    53  52  95 N5        29.29R
CLARKSVILLE*   CLOUDY    54  54 100 CALM      29.27R
SOUTH HILL*    CLOUDY    55  55 100 CALM      29.33S
LAWRENCEVILLE* CLOUDY    55  54  97 CALM      29.27F
EMPORIA*       MIX PCPN  55  55 100 CALM      29.29S
$$

VAZ088>098-231700-
SOUTHEAST VIRGINIA

CITY           SKY/WX    TMP DP  RH WIND       PRES   REMARKS
NORFOLK        PTSUNNY   62  59  90 SE12G20   29.26S
VIRGINIA BEACH CLOUDY    61  58  90 SE9       29.25F
NORFOLK NAVAL  PTSUNNY   62  59  90 SE7       29.26F
WEST POINT*    CLOUDY    52  52  97 NE15G23   29.33R
SALUDA*        CLOUDY    50  50 100 E23G36    29.29F
NEWPORT NEWS   FOG       55  54  96 E12       29.28S VSB 1
LANGLEY AFB    FOG       53  53 100 E9        29.27F VSB 1/2
FORT EUSTIS    FOG       55  54  94 E12       29.26S VSB 3/4
WILLIAMSBURG*  CLOUDY    55  55 100 E5        29.30R VSB 1
HR EXEC AP*    CLOUDY    63  59  88 S6        29.25S
FRANKLIN*      CLOUDY    60  57  91 SW9       29.28R
US460-WAKEFLD  CLOUDY    57  57 100 VRB3      29.28R FOG
$$

VAZ020-022-025-037-045-231700-
WEST CENTRAL AND SOUTHWEST VIRGINIA

CITY           SKY/WX    TMP DP  RH WIND       PRES   REMARKS
STAUNTON*      RAIN      42  41  96 N7        29.45R
WAYNESBORO*    CLOUDY    42  41  96 N8        29.41R
HOT SPRINGS VA LGT RAIN  32  32 100 E16G33    29.31R VSB 1/4 WCI  21
LYNCHBURG      LGT RAIN  47  44  90 NE26G36   29.32R FOG
DANVILLE       CLOUDY    52  52 100 NE12      29.27S
SOUTH BOSTON*  CLOUDY    51  50  95 N6        29.29R
MARTINSVILLE   CLOUDY    49  47  94 NE8       29.31R FOG
ROANOKE        LGT RAIN  49  45  86 NE16G25   29.33S FOG
BLACKSBURG     DRIZZLE   47  46  97 NE7       29.33S
DUBLIN*        CLOUDY    47  47 100 NE9       29.32S
MARION*        LGT RAIN  47  45  92 CALM      29.33R
HILLSVILLE*    CLOUDY    47  45  91 E8        29.27S
RICHLANDS*     LGT RAIN  45  45 100 N5        29.34R
WISE*          RAIN      46  46 100 N8        29.37R
ABINGDON*      LGT RAIN  49  46  89 NE3       29.32R
$$

MDZ021>025-VAZ099-100-231700-
SOUTHERN MARYLAND AND THE DELMARVA PENINSULA

CITY           SKY/WX    TMP DP  RH WIND       PRES   REMARKS
PATUXENT RIVER RAIN      47  46  97 NE30G41   29.38F FOG
BAY BRIDGE APT DRIZZLE   43  41  93 NE18G31   29.48F FOG
LEONARDTOWN    CLOUDY    45  43  93 NE12G25   29.41S
DOVER          CLOUDY    43  43 100 NE18G31   29.52F
GEORGETOWN     LGT RAIN  46  32  58 NE29G45   29.48F
EASTON         RAIN      45  41  87 E25G38    29.49F VSB 1
CAMBRIDGE      CLOUDY    43  43 100 NE21G37   29.41F
SALISBURY      LGT RAIN  49  47  93 E29G39    29.40F FOG
OCEAN CITY     CLOUDY    50  49  96 E21G36    29.40F FOG
WALLOPS ISLAND RAIN      51  51 100 NE31G40   29.34F FOG
ACCOMACK*      LGT RAIN  52  51  95 E29G36    29.29F
$$

NCZ012>017-030>032-231700-
NORTH CENTRAL AND EASTERN NORTH CAROLINA

CITY           SKY/WX    TMP DP  RH WIND       PRES   REMARKS
ROANOKE RAPIDS CLOUDY    57  54  88 S9        29.27F
RALEIGH        PTSUNNY   56  49  77 SW15      29.30R
ELIZABETH CITY CLOUDY    60  58  92 SW14      29.28S
AHOSKIE*         N/A     59  55  87 SW3       29.28F
EDENTON*       CLOUDY    62  56  83 CALM      29.30S
CURRITUCK*     CLOUDY    61  60  99 SW14G22   29.28S
KILL DEVIL HLS NOT AVBL
MANTEO         CLOUDY    58  57  98 SW9       29.29F
CAPE HATTERAS  CLOUDY    62  54  74 SW14G21   29.32S HAZE
TARBORO*       NOT AVBL
GOLDSBORO      PTSUNNY   58  53  80 SW12      29.28S
WASHINGTON     SUNNY     62  51  66 SW13        N/A
GREENVILLE     SUNNY     61  52  72 SW10G16   29.35S
NEW BERN       SUNNY     62  51  67 SW9       29.31F
WILMINGTON     SUNNY     62  50  64 SW10      29.30F
$$

VAZ048-231700-
ELSEWHERE

CITY           SKY/WX    TMP DP  RH WIND       PRES   REMARKS
HARRISBURG PA  LGT RAIN  41  38  89 E13G25    29.63F
BALTIMORE      LGT RAIN  42  40  92 E32G43    29.51F FOG
ANNAPOLIS      LGT RAIN  45  40  82 NE18G30   29.49F
ANDREWS AFB    LGT RAIN  43  41  93 NE24G38   29.43F
PHILADELPHIA   LGT RAIN  40  36  86 NE22G39   29.66F FOG
HENDERSON NC   PTSUNNY   53  50  89 S7        29.28S
GREENSBORO     DRIZZLE   50  49  96 SW12      29.27R
ROCKY MOUNT    SUNNY     58  50  75 SW13      29.29S
$$

VAZ100-231700-
MARINE

STATION/POSITION TIME  TEMP    WIND        PRES    WAVE   SWELL
                       AIR SEA DIR/SP/G            HT/PER HT/PER
                 (UTC) (F)     (DEG/KT/KT) (MB)    (FT/S) (FT/S)
CAPE MAY NJ      1542   44 44   50/ 11/ 25  998.9F
LEWES DE         1548           70/ 35/ 42  998.1F
OCEAN-CITY-INLET 1548           80/ 17/ 26  996.5F
WACHAPREAGUE VA  1548   51 49   60/ 27/ 34  991.7F
THOMAS POINT MD  1600   44 40   50/ 27/ 30   N/A
GOOSES REEF MD   1550   44     100/ 29/ 35  996.5F
COVE POINT MD    1548   45      90/ 33/ 45  995.6F
SOLOMONS ISLAND  1548           60/ 22/ 31   N/A
BISHOPS HEAD MD  1548   48 44   50/ 25/ 31  994.6F
PINEY POINT MD   1548           80/ 21/ 28   N/A
POTOMAC MD       1550   47      70/ 27/ 33  991.6F
CAMBRIDGE MD     1548   45 43   60/ 27/ 36  995.4F
LEWISETTA VA     1548   48 44   70/ 27/ 35  992.1F
RAPPAHANNOCK LGT 1548           70/ 26/ 31  992.9R
STINGRAY PT      1550   48      80/ 23/ 27  991.8F
YORK RVR RNG VA  1548   50     110/ 16/ 22  990.5R
YORKTOWN VA      1548   52 44  110/ 13/ 16  991.1F
JAMESTOWN VA     1550   53      80/  8/ 12   N/A
DOMINION TERM VA 1548   51      70/  8/ 11  991.1R
CHES BAY BRIDGE  1536   53 46  100/ 13/ 14  990.9S
CAPE HENRY VA    1536   56     140/  6/  9   N/A
WILLOUBY STN VA  1536   50      80/ 10/ 12  991.6F
S CRANEY ISL VA  1536   59     130/ 10/ 13  990.6R
CAPE HENRY BUOY  1542      48                N/A     7/10   2/11
OFFSHORE WE BUOY 1551      48                N/A     9/ 9   3/11
64NM E OF VA BCH 1550   60 56  210/ 21/ 27  990.7R   9/ 9   5/ 9
DUCK PIER NC     1536   57 46  210/ 13/ 15  991.0R
44100 DUCK FRF   1535      49                N/A     6/13   3/13
44056 DUCK FRF   1530      46                N/A     5/14   2/14
OREGON INLET NC  1536   52 50  210/ 13/ 15  992.0F
HATTERAS NC      1548          230/ 11/ 17  992.5F
DIAMOND SHLS NC  1550   66 76  230/ 23/ 29  992.5F   7/11   5/11
CAPE LOOKOUT NC  1500   58     240/ 13/ 15  993.2
$$




USA.gov is the U.S. government's official web portal to all federal, state and local government web resources and services.